Flag for Germany Weather past 2 weeks in Wetzlar, Hesse, Germany

Now
36 °F

Sunny.


Feels Like: 36 °F
Forecast: 31 / 34 °F
Wind: 2 mph from West

Location: Giessen

Current Time: Dec 26, 2014 at 11:16:33 AM

Latest Report: Dec 26, 2014 at 11:00 AM


Visibility: 7 mi

Pressure: 30.41 "Hg

Humidity: 98%

Dew point: 35 °F

Location of WetzlarLocation

Historic Weather in Wetzlar — Graph

°F

Wetzlar temperature yesterday

Maximum temperature yesterday: 42 °F (at 12:00 AM)
Minimum temperature yesterday: 35 °F (at 11:00 PM)
Average temperature yesterday: 39 °F

Past Weeks' High & Low Weather Summary

 TemperatureHumidityPressure
High54 °F (Dec 18, 9:00 PM)100% (Dec 11, 12:00 PM)30.45 "Hg (Dec 11, 12:00 PM)
Low30 °F (Dec 15, 8:00 AM)76% (Dec 25, 1:00 AM)29.54 "Hg (Dec 12, 6:00 PM)
Average42 °F92%30.03 "Hg
* Reported Dec 11 10:00 AM — Dec 26 10:00 AM, Wetzlar, Weather by CustomWeather, © 2014

Note: Actual official high and low records may vary slightly from our data, if they occured in-between our weather recording intervals... More about our weather records

Advertising

Wetzlar weather history for previous 24 hours

 ConditionsComfort  
Time TempWeatherWind HumidityBarometerVisibility
10:00 AM
Dec 26
33 °FPassing clouds.3 mph99%30.41 "Hg5 mi
9:00 AM33 °FScattered clouds.3 mph99%30.41 "Hg8 mi
8:00 AM31 °FClear.5 mph98%30.40 "Hg9 mi
7:00 AM32 °FPassing clouds.2 mph98%30.39 "Hg8 mi
6:00 AM32 °FClear.2 mph98%30.39 "Hg9 mi
5:00 AM31 °FClear.3 mph98%30.39 "Hg6 mi
4:00 AM33 °FPassing clouds.3 mph98%30.38 "Hg7 mi
3:00 AM35 °FOvercast.5 mph96%30.38 "Hg11 mi
2:00 AM34 °FPassing clouds.3 mph96%30.37 "Hg11 mi
1:00 AM33 °FClear.5 mph95%30.36 "Hg12 mi
12:00 AM35 °FPassing clouds.5 mph92%30.36 "Hg12 mi
11:00 PM
Dec 25
35 °FClear.6 mph93%30.34 "Hg13 mi
10:00 PM36 °FPassing clouds.5 mph93%30.34 "Hg16 mi
9:00 PM36 °FPassing clouds.6 mph92%30.32 "Hg17 mi
8:00 PM38 °FOvercast.5 mph83%30.31 "Hg28 mi
7:00 PM38 °FOvercast.3 mph94%30.29 "Hg22 mi
6:00 PM38 °FOvercast.5 mph91%30.26 "Hg34 mi
5:00 PM40 °FLow clouds.7 mph86%30.25 "Hg25 mi
4:00 PM40 °FOvercast.6 mph88%30.23 "Hg19 mi
3:00 PM42 °FLight rain. Low clouds.6 mph81%30.23 "Hg8 mi
2:00 PM42 °FOvercast.7 mph84%30.22 "Hg22 mi
1:00 PM41 °FPassing clouds.8 mph86%30.22 "Hg16 mi
12:00 PM40 °FOvercast.9 mph86%30.23 "Hg22 mi
11:00 AM39 °FOvercast.9 mph85%30.23 "Hg25 mi
Weather by CustomWeather, © 2014

See weather overviewHow to use our weather pages